Regional Weather Roundup
Issued by NWS State College, PA

Home | Current Version | Previous Version | Text Only | Print | Product List | Glossary On
Versions: 1 2 3 4 5 6 7 8 9 10 11 12 13 14 15 16 17 18 19 20 21 22 23 24 25 26 27 28 29 30 31 32 33 34 35 36 37 38 39 40 41 42 43 44 45 46 47 48 49 50
000
ASUS41 KCTP 200610
RWRCTP

REGIONAL WEATHER ROUNDUP
NATIONAL WEATHER SERVICE STATE COLLEGE PA
200 AM EDT SUN APR 20 2014

Note: "fair" indicates few or no clouds below 12,000 feet with no
significant weather and/or obstructions to visibility.

* = STATION THAT DOES NOT REPORT PRECIPITATION /E.G. RAIN...SNOW...ETC/
    THUNDER OR FOG.

PAZ002>004-007>009-013>016-020>023-029>032-200700-
WESTERN PENNSYLVANIA

CITY           SKY/WX    TMP DP  RH WIND       PRES   REMARKS
ERIE           FAIR      38  28  67 CALM      30.34S
MEADVILLE      NOT AVBL
FRANKLIN*      FAIR      45  25  45 E6        30.34S
NEW CASTLE     FAIR      40  32  73 CALM      30.32S
BEAVER COUNTY  NOT AVBL
BUTLER*        FAIR      45  25  45 E10       30.32S
PITTSBURGH INT FAIR      45  31  58 CALM      30.28F
PITTSBURGH     FAIR      53  20  27 E5        30.28F
INDIANA*       FAIR      46  27  46 E7        30.34R
LATROBE        CLEAR     50  27  40 CALM      30.31S
WASHINGTON CO* FAIR      36  27  69 CALM      30.30S
$$

PAZ004>006-010>012-017>019-024>028-033>037-041-042-045-046-049>053-200700-
CENTRAL PENNSYLVANIA

CITY           SKY/WX    TMP DP  RH WIND       PRES   REMARKS
BRADFORD       FAIR      36  24  62 CALM      30.35S
DUBOIS         FAIR      43  26  51 E7        30.33S
CLEARFIELD     FAIR      42  27  55 N5        30.36S
JOHNSTOWN      FAIR      45  23  42 E8        30.31S
ALTOONA        FAIR      46  25  43 NE5       30.35R
STATE COLLEGE  FAIR      44  23  44 NE6       30.37S
WILLIAMSPORT   FAIR      40  30  67 W3        30.39S
SELINSGROVE    FAIR      39  31  72 CALM      30.39R
FT INDIANTOWN  NOT AVBL
CAPITAL CITY   FAIR      43  30  60 CALM      30.37R
HARRISBURG     MOCLDY    47  31  53 CALM      30.36R
YORK           FAIR      38  33  82 CALM      30.36R
$$

PAZ038>040-043-044-047-048-054-055-060>062-067>071-200700-
EASTERN PENNSYLVANIA

CITY           SKY/WX    TMP DP  RH WIND       PRES   REMARKS
SCRANTON       FAIR      39  26  59 S7        30.38R
MOUNT POCONO   FAIR      39  25  57 NE7       30.36R
ALLENTOWN      FAIR      46  24  42 CALM      30.37R
QUAKERTOWN*    FAIR      46  25  42 NE3       30.37S
READING        FAIR      49  26  41 N5        30.36R
LANCASTER      FAIR      46  27  47 NE8       30.35R
COATESVILLE    NOT AVBL
POTTSTOWN      FAIR      48  24  39 NE6       30.37R
BLUE BELL      FAIR      52  28  40 CALM      30.35R
DOYLESTOWN     FAIR      48  25  40 NE5       30.36R
WILLOW GROVE   NOT AVBL
NORTH PHILA    FAIR      49  30  48 NE9       30.37R
PHILADELPHIA   MOCLDY    49  37  63 E3        30.36R
$$



USA.gov is the U.S. government's official web portal to all federal, state and local government web resources and services.